SCP
0 0 0 0 0 0 0 0 0 0 0 0 0 0 0 0 0 0 0 0 0 0 0 0 0 0 0 0 0 0 0 0 0 0 0 0 0 0 0 0 0 0 0 0
0 0 0 0 0 0 0 0 0 0 0 0 0 0 0 0 0 0 0 0 0 0 0 0 0 0 0 0 0 0 0 0 0 0 0 0 0 0 0 0 0 0 0 0
0 0 0 0 0 0 0 0 0 0 0 0 0 0 0 0 0 0 0 0 0 0 0 0 0 0 0 0 0 0 0 0 0 0 0 0 0 0 0 0 0 0 0 0
0 0 0 0 0 0 0 0 0 0 0 0 0 -0 0 0 0 0 0 0 0 0 0 0 0 0 0 0 0 0 0 0 0 0 0 0 0 0 0 0 0 0 0 0
0 0 0 0 0 0 0 0 0 0 0 0 0 0 -0 0 0 0 0 0 0 0 0 0 0 0 0 0 0 0 0 0 0 0 0 0 0 0 0 0 0 0 0 0
0 0 0 0 0 0 0 0 0 0 0 0 0 0 -0 0 0 0 0 0 0 0 0 0 0 0 0 0 0 0 0 0 0 0 0 0 0 0 0 0 0 0 0 0
0 0 0 0 0 0 0 0 0 0 0 0 0 0 0 0 0 0 0 0 0 0 0 0 0 0 0 0 0 0 0 0 0 0 0 0 0 0 0 0 0 0 0 0
0 0 0 0 0 0 0 0 0 0 0 0 0 0 0 -0 0 0 0 0 0 0 0 0 0 0 0 0 0 0 0 0 0 0 0 0 0 0 0 0 0 0 0 0
0 0 0 0 0 0 0 0 0 0 0 0 0 0 0 0 0 0 0 0 0 0 0 0 0 0 0 0 0 0 0 0 0 0 0 0 0 0 0 0 0 0 0 0
0 0 0 0 0 0 0 0 0 0 0 0 0 0 0 0 0 0 0 0 0 0 0 -0 -0 -0 0 0 0 0 0 0 0 0 0 0 0 0 0 0 0 0 0 0
0 0 0 0 0 0 0 0 0 0 0 0 0 0 0 0 0 0 0 0 0 -0 0 -0 0 0 0 0 0 0 0 0 0 0 0 0 0 0 0 0 0 0 0 0
0 0 0 0 0 0 0 0 0 0 0 0 0 0 0 0 0 0 0 0 0 0 0 0 0 0 0 0 0 0 0 0 0 0 0 0 0 0 0 0 0 0 0 0
0 0 0 0 0 0 0 0 0 0 0 0 0 0 0 0 0 0 0 0 0 0 0 0 0 -0 0 0 0 0 0 0 0 0 0 0 0 0 0 0 0 0 0 0
0 0 0 0 0 0 0 0 0 0 0 0 0 0 0 0 0 0 0 0 -0 -0 -0 0 0 -0 -0 -0 0 0 0 0 0 0 0 0 0 0 0 0 0 0 0 0
0 0 0 0 0 0 0 0 0 0 0 0 0 0 0 0 0 0 0 0 0 0 0 0 0 0 0 0 -0 0 0 0 0 0 0 0 0 0 0 0 0 0 0 0
0 0 0 0 0 0 0 0 0 0 0 0 0 0 0 0 0 0 0 0 0 0 0 0 0 0 0 0 0 0 0 0 0 0 0 0 0 0 0 0 0 0 0 0
0 0 0 0 0 0 0 0 0 0 0 0 0 0 0 0 0 0 0 0 0 0 0 0 0 0 0 0 0 0 0 0 0 0 0 0 0 0 0 0 0 0 0 0
0 0 0 0 0 0 0 0 0 0 0 0 0 0 0 0 0 0 0 0 0 0 0 0 0 0 0 0 0 0 0 0 0 0 0 0 0 0 0 0 0 0 0 0
0 0 0 0 0 0 0 0 0 0 0 0 0 0 0 0 0 0 0 0 0 0 0 0 0 0 0 0 0 0 0 0 0 0 0 0 0 0 0 0 0 0 0 0
0 0 0 0 0 0 0 0 0 0 0 0 0 0 0 0 0 0 0 0 0 0 0 0 0 0 0 0 0 0 0 0 0 0 0 0 0 0 0 0 0 0 0 0
0 0 0 0 0 0 0 0 0 0 0 0 0 0 0 0 0 0 0 0 0 0 0 0 0 0 0 0 0 0 0 0 0 0 0 0 0 0 0 0 0 0 0 0
0 0 0 0 0 0 0 0 0 0 0 0 0 0 0 0 0 0 0 0 0 0 0 0 0 0 0 0 0 0 0 0 0 0 0 0 0 0 0 0 0 0 0 0
0 0 0 0 0 0 0 0 0 0 0 0 0 0 0 0 0 0 0 0 0 0 0 0 0 0 0 0 0 0 0 0 0 0 0 0 0 0 0 0 0 0 0 0
0 0 0 0 0 0 0 0 0 0 0 0 0 0 0 0 0 0 0 0 0 0 0 0 0 0 0 0 0 0 0 0 0 0 0 0 0 0 0 0 0 0 0 0
0 0 0 0 0 0 0 0 0 0 0 0 0 0 0 0 0 0 0 0 0 0 0 0 0 0 0 0 0 0 0 0 0 0 0 0 0 0 0 0 0 0 0 0
0 0 0 0 0 0 0 0 0 0 0 0 0 0 0 0 0 0 0 0 0 0 0 0 0 0 0 0 0 0 0 0 0 0 0 0 0 0 0 0 0 0 0 0
Wind_Speed_500mb
28 9 16 22 25 16 15 5 15 9 8 4 14 16 18 24 28 26 24 25 28 33 30 32 37 37 43 48 49 51 52 52 53 55 55 54 55 54 55 54 53 51 50 47
7 14 17 8 11 16 8 11 12 9 13 5 13 17 15 17 18 26 29 36 40 38 39 40 42 50 55 54 57 57 58 57 59 60 59 58 55 58 56 55 57 56 55 53
12 3 22 10 6 12 10 15 12 9 6 8 10 15 20 20 50 44 44 48 50 50 49 44 45 46 50 56 60 57 61 57 58 61 59 57 55 56 55 54 53 53 54 56
15 12 12 12 15 13 14 10 10 11 6 4 14 9 6 10 14 15 40 46 50 49 48 49 49 43 44 38 36 48 58 63 66 68 67 66 64 63 58 54 49 47 42 41
5 12 15 13 12 15 6 9 6 6 2 6 9 4 10 18 13 15 29 38 35 18 15 19 27 37 45 53 61 67 66 60 57 62 66 66 64 60 51 47 37 34 38 38
7 5 4 3 10 8 15 16 13 5 3 1 17 12 8 10 7 12 10 18 11 9 9 14 20 26 26 31 39 47 59 63 65 60 64 65 62 58 50 42 36 41 41 42
2 7 5 3 13 10 9 13 4 4 2 9 6 10 17 21 12 7 12 19 3 9 9 11 15 20 23 24 21 21 28 39 43 57 61 64 62 52 51 46 45 44 39 36
11 6 16 12 9 13 18 12 8 12 8 6 9 9 10 12 7 4 4 4 8 9 10 11 15 18 18 17 16 15 14 16 24 30 35 46 55 55 49 44 41 29 26 22
13 7 12 18 6 14 10 11 5 9 3 6 9 10 14 13 16 13 13 5 7 11 11 13 13 13 12 11 8 7 9 11 16 18 20 27 35 39 43 41 38 35 31 28
10 10 4 5 8 7 2 9 7 5 6 5 7 9 10 9 13 15 15 15 6 8 7 10 16 20 18 12 7 5 5 5 8 11 15 19 23 27 26 25 24 25 23 22
4 6 3 9 12 12 5 5 6 5 8 7 4 8 3 10 14 19 17 16 15 16 21 25 32 31 23 18 13 8 8 8 8 9 11 14 17 18 18 17 17 16 16 17
9 5 8 10 6 4 6 11 13 7 7 6 5 10 7 15 15 22 9 8 11 19 21 22 23 20 28 30 20 17 17 18 18 17 17 16 16 15 14 13 12 13 15 18
14 7 6 6 1 3 9 13 18 12 5 10 7 7 0 17 11 14 13 11 6 3 6 9 20 16 19 22 33 36 31 30 28 27 24 23 18 16 13 11 11 16 18 20
29 7 8 12 6 11 9 11 19 15 4 22 12 24 13 12 6 4 8 6 7 15 22 30 40 32 34 36 31 40 43 43 42 37 37 34 28 24 20 16 16 18 21 24
8 7 5 15 11 10 7 5 22 18 27 13 25 26 13 12 13 20 39 31 15 26 30 39 42 45 50 39 41 39 37 45 51 52 48 46 40 35 31 29 28 25 24 30
9 3 4 4 12 11 9 13 16 17 17 21 30 34 16 25 34 39 39 28 38 36 41 41 44 51 57 48 45 43 41 39 46 57 56 54 52 48 44 44 41 37 34 37
11 8 6 9 7 8 6 21 21 13 21 16 25 32 25 15 19 29 25 36 45 50 41 40 44 53 58 54 51 51 42 41 43 50 56 57 57 58 58 55 55 51 51 49
11 10 6 7 7 5 17 9 24 31 32 26 31 32 43 36 40 38 43 37 49 52 42 54 54 54 55 54 56 55 47 46 49 49 53 57 61 63 58 58 61 61 65 66
10 9 4 7 9 10 18 13 8 10 23 16 17 24 39 44 37 33 35 33 29 30 41 46 46 50 54 54 49 49 57 57 51 50 49 49 48 53 60 63 63 64 68 69
9 7 6 5 9 14 17 25 45 14 10 21 25 21 27 37 7 8 20 26 36 43 45 46 53 59 58 53 52 45 40 40 41 40 39 43 53 59 62 61 58 58 61 63
9 12 26 23 17 10 11 16 11 10 14 40 16 21 33 13 27 45 34 39 47 54 49 49 52 54 53 48 44 50 49 49 46 46 46 44 45 47 51 56 59 59 58 59
16 13 9 9 14 20 38 20 23 36 42 44 34 25 33 46 49 47 41 44 48 55 41 35 43 40 39 40 43 44 44 44 44 42 44 47 49 51 51 53 57 57 57 57
7 14 8 15 12 17 31 26 15 14 15 31 41 45 49 59 68 71 66 65 54 50 46 52 53 52 40 40 44 47 45 45 44 42 44 46 46 49 53 54 54 52 52 51
7 20 12 6 22 27 47 58 52 42 41 53 65 58 50 46 58 64 68 64 55 51 57 58 59 54 53 45 41 45 44 43 43 44 45 45 42 41 41 44 46 47 47 49
13 13 14 11 31 24 46 54 58 64 70 63 57 54 57 55 57 62 61 57 56 51 51 48 46 45 43 40 40 37 41 39 38 38 38 38 39 38 34 34 34 37 40 43
18 25 13 22 34 19 41 49 47 41 40 41 48 59 53 48 52 59 56 51 44 43 40 39 42 43 41 39 39 38 39 38 36 34 31 30 28 28 28 29 30 31 34 36
Wind_Direction_500mb
198 200 203 195 209 234 249 309 268 239 52 14 238 250 247 216 193 215 241 249 244 245 233 229 230 236 232 231 234 236 237 241 242 244 243 242 247 251 251 255 255 254 254 251
147 229 218 210 234 225 239 263 273 99 96 56 317 295 268 262 260 255 245 247 251 246 243 242 239 235 236 240 240 236 240 240 243 246 250 252 256 261 263 260 256 256 253 251
176 168 221 164 188 200 217 228 249 245 108 196 290 264 239 244 244 243 246 248 252 252 250 248 248 245 246 246 243 238 235 232 238 246 251 252 256 261 259 257 256 256 252 249
244 142 140 177 186 185 206 206 252 288 116 224 175 274 310 255 191 222 247 246 250 254 260 261 253 242 233 229 237 250 251 247 238 236 241 244 245 250 259 263 267 269 262 255
200 150 165 189 197 182 110 101 188 237 136 316 250 271 240 226 216 224 239 232 239 232 223 235 252 259 249 248 248 245 241 237 239 237 237 241 241 247 251 254 260 262 270 266
80 336 226 178 78 143 137 105 76 66 203 246 223 195 254 219 229 230 69 97 93 32 298 272 265 258 272 276 268 256 249 241 233 235 234 238 240 240 241 238 232 235 241 256
113 158 53 323 103 72 182 153 82 31 353 218 355 212 248 301 340 53 125 129 35 311 331 323 272 271 285 293 287 272 254 249 236 239 242 237 236 234 240 243 245 247 246 247
162 206 169 196 186 175 201 176 147 191 189 198 355 238 253 247 307 355 241 211 294 332 345 325 308 306 298 299 288 272 260 242 239 243 241 238 238 237 239 235 243 240 228 239
178 155 106 164 222 140 184 221 77 103 345 72 205 255 305 278 277 156 137 101 59 19 1 336 327 329 318 309 290 271 255 243 237 240 231 222 221 223 225 228 222 216 214 223
352 100 44 95 37 298 276 153 101 319 135 233 255 239 232 215 238 122 128 114 40 345 7 16 18 9 351 323 295 268 242 221 217 213 216 216 214 213 214 210 208 212 216 226
194 77 109 107 211 180 169 189 215 173 175 182 171 243 257 71 49 103 112 76 73 68 58 49 33 13 360 347 315 267 237 222 218 219 209 198 197 196 201 206 210 219 226 232
175 32 159 193 83 353 247 208 190 155 210 217 120 262 157 95 76 91 67 15 86 83 76 59 36 15 344 331 313 287 261 247 248 240 217 203 195 194 200 211 225 242 255 263
153 209 112 111 137 182 216 223 228 252 348 228 142 251 8 96 80 77 63 48 94 359 311 330 358 335 344 321 304 294 275 262 254 240 224 213 209 211 217 239 260 269 273 275
181 159 202 188 125 127 186 203 226 225 178 240 231 254 287 326 291 257 217 261 268 267 272 298 314 312 311 312 292 287 285 274 262 249 236 227 223 224 228 237 258 276 284 285
124 191 278 288 348 350 323 294 215 219 231 228 247 263 249 270 293 317 314 315 280 297 289 304 306 299 298 305 296 291 289 285 269 262 248 240 238 238 246 254 257 261 275 287
154 144 163 286 278 289 272 291 287 267 249 244 253 265 260 275 280 279 283 302 296 281 286 292 289 290 293 296 307 306 289 304 281 261 256 250 249 251 257 262 268 271 277 281
131 151 116 257 198 266 310 233 230 256 260 250 262 266 284 268 273 269 312 311 298 294 293 290 287 287 289 295 297 299 290 283 290 270 258 254 256 257 260 266 269 273 274 272
137 168 130 211 67 235 237 230 211 224 244 241 252 263 269 275 281 290 298 290 289 285 280 283 281 283 285 292 291 292 286 278 285 273 265 262 258 257 262 265 272 275 274 271
132 161 185 161 186 275 317 273 215 230 265 263 252 258 268 277 291 297 287 281 297 301 284 284 287 292 297 292 296 280 274 280 278 272 267 264 256 264 269 271 275 275 272 269
202 186 160 136 184 212 227 237 237 219 251 248 249 258 268 281 271 256 279 289 296 292 279 275 282 289 285 285 291 274 273 276 277 283 281 273 264 263 266 269 267 268 269 267
182 197 213 225 231 255 221 234 135 165 223 232 244 260 285 279 278 290 290 287 295 299 293 286 280 280 282 283 276 281 284 283 282 274 272 272 265 266 267 266 265 269 269 264
167 169 198 212 231 244 222 242 215 234 239 256 269 302 316 309 303 290 295 304 300 294 287 288 295 292 284 281 281 282 282 281 279 274 271 270 269 269 269 268 271 271 268 264
227 193 183 175 206 227 238 242 295 331 313 306 305 302 295 293 294 293 296 298 293 278 277 293 292 281 279 276 283 287 287 289 289 287 281 278 276 275 272 268 267 268 266 259
245 230 245 281 258 261 276 282 285 287 288 291 290 288 288 286 288 287 286 291 288 280 290 287 284 280 279 277 270 277 280 285 288 289 282 281 280 275 271 267 263 259 254 251
193 188 220 249 256 264 264 267 273 278 278 278 282 284 285 284 287 284 282 283 291 289 287 280 278 279 280 280 280 276 281 284 286 290 289 286 283 279 274 268 261 258 258 258
199 232 212 237 251 232 253 264 266 269 273 271 282 286 275 286 291 292 286 288 300 295 286 280 281 281 282 286 286 284 282 281 283 283 286 286 286 283 278 274 269 266 267 269
Wind_Speed_850mb
28 9 16 22 25 16 15 5 15 9 8 4 14 16 18 24 28 26 24 25 28 33 30 32 37 37 43 48 49 51 52 52 53 55 55 54 55 54 55 54 53 51 50 47
7 14 17 8 11 16 8 11 12 9 13 5 13 17 15 17 18 26 29 36 40 38 39 40 42 50 55 54 57 57 58 57 59 60 59 58 55 58 56 55 57 56 55 53
12 3 22 10 6 12 10 15 12 9 6 8 10 15 20 20 50 44 44 48 50 50 49 44 45 46 50 56 60 57 61 57 58 61 59 57 55 56 55 54 53 53 54 56
15 12 12 12 15 13 14 10 10 11 6 4 14 9 6 10 14 15 40 46 50 49 48 49 49 43 44 38 36 48 58 63 66 68 67 66 64 63 58 54 49 47 42 41
5 12 15 13 12 15 6 9 6 6 2 6 9 4 10 18 13 15 29 38 35 18 15 19 27 37 45 53 61 67 66 60 57 62 66 66 64 60 51 47 37 34 38 38
7 5 4 3 10 8 15 16 13 5 3 1 17 12 8 10 7 12 10 18 11 9 9 14 20 26 26 31 39 47 59 63 65 60 64 65 62 58 50 42 36 41 41 42
2 7 5 3 13 10 9 13 4 4 2 9 6 10 17 21 12 7 12 19 3 9 9 11 15 20 23 24 21 21 28 39 43 57 61 64 62 52 51 46 45 44 39 36
11 6 16 12 9 13 18 12 8 12 8 6 9 9 10 12 7 4 4 4 8 9 10 11 15 18 18 17 16 15 14 16 24 30 35 46 55 55 49 44 41 29 26 22
13 7 12 18 6 14 10 11 5 9 3 6 9 10 14 13 16 13 13 5 7 11 11 13 13 13 12 11 8 7 9 11 16 18 20 27 35 39 43 41 38 35 31 28
10 10 4 5 8 7 2 9 7 5 6 5 7 9 10 9 13 15 15 15 6 8 7 10 16 20 18 12 7 5 5 5 8 11 15 19 23 27 26 25 24 25 23 22
4 6 3 9 12 12 5 5 6 5 8 7 4 8 3 10 14 19 17 16 15 16 21 25 32 31 23 18 13 8 8 8 8 9 11 14 17 18 18 17 17 16 16 17
9 5 8 10 6 4 6 11 13 7 7 6 5 10 7 15 15 22 9 8 11 19 21 22 23 20 28 30 20 17 17 18 18 17 17 16 16 15 14 13 12 13 15 18
14 7 6 6 1 3 9 13 18 12 5 10 7 7 0 17 11 14 13 11 6 3 6 9 20 16 19 22 33 36 31 30 28 27 24 23 18 16 13 11 11 16 18 20
29 7 8 12 6 11 9 11 19 15 4 22 12 24 13 12 6 4 8 6 7 15 22 30 40 32 34 36 31 40 43 43 42 37 37 34 28 24 20 16 16 18 21 24
8 7 5 15 11 10 7 5 22 18 27 13 25 26 13 12 13 20 39 31 15 26 30 39 42 45 50 39 41 39 37 45 51 52 48 46 40 35 31 29 28 25 24 30
9 3 4 4 12 11 9 13 16 17 17 21 30 34 16 25 34 39 39 28 38 36 41 41 44 51 57 48 45 43 41 39 46 57 56 54 52 48 44 44 41 37 34 37
11 8 6 9 7 8 6 21 21 13 21 16 25 32 25 15 19 29 25 36 45 50 41 40 44 53 58 54 51 51 42 41 43 50 56 57 57 58 58 55 55 51 51 49
11 10 6 7 7 5 17 9 24 31 32 26 31 32 43 36 40 38 43 37 49 52 42 54 54 54 55 54 56 55 47 46 49 49 53 57 61 63 58 58 61 61 65 66
10 9 4 7 9 10 18 13 8 10 23 16 17 24 39 44 37 33 35 33 29 30 41 46 46 50 54 54 49 49 57 57 51 50 49 49 48 53 60 63 63 64 68 69
9 7 6 5 9 14 17 25 45 14 10 21 25 21 27 37 7 8 20 26 36 43 45 46 53 59 58 53 52 45 40 40 41 40 39 43 53 59 62 61 58 58 61 63
9 12 26 23 17 10 11 16 11 10 14 40 16 21 33 13 27 45 34 39 47 54 49 49 52 54 53 48 44 50 49 49 46 46 46 44 45 47 51 56 59 59 58 59
16 13 9 9 14 20 38 20 23 36 42 44 34 25 33 46 49 47 41 44 48 55 41 35 43 40 39 40 43 44 44 44 44 42 44 47 49 51 51 53 57 57 57 57
7 14 8 15 12 17 31 26 15 14 15 31 41 45 49 59 68 71 66 65 54 50 46 52 53 52 40 40 44 47 45 45 44 42 44 46 46 49 53 54 54 52 52 51
7 20 12 6 22 27 47 58 52 42 41 53 65 58 50 46 58 64 68 64 55 51 57 58 59 54 53 45 41 45 44 43 43 44 45 45 42 41 41 44 46 47 47 49
13 13 14 11 31 24 46 54 58 64 70 63 57 54 57 55 57 62 61 57 56 51 51 48 46 45 43 40 40 37 41 39 38 38 38 38 39 38 34 34 34 37 40 43
18 25 13 22 34 19 41 49 47 41 40 41 48 59 53 48 52 59 56 51 44 43 40 39 42 43 41 39 39 38 39 38 36 34 31 30 28 28 28 29 30 31 34 36
Wind_Direction_850mb
198 200 203 195 209 234 249 309 268 239 52 14 238 250 247 216 193 215 241 249 244 245 233 229 230 236 232 231 234 236 237 241 242 244 243 242 247 251 251 255 255 254 254 251
147 229 218 210 234 225 239 263 273 99 96 56 317 295 268 262 260 255 245 247 251 246 243 242 239 235 236 240 240 236 240 240 243 246 250 252 256 261 263 260 256 256 253 251
176 168 221 164 188 200 217 228 249 245 108 196 290 264 239 244 244 243 246 248 252 252 250 248 248 245 246 246 243 238 235 232 238 246 251 252 256 261 259 257 256 256 252 249
244 142 140 177 186 185 206 206 252 288 116 224 175 274 310 255 191 222 247 246 250 254 260 261 253 242 233 229 237 250 251 247 238 236 241 244 245 250 259 263 267 269 262 255
200 150 165 189 197 182 110 101 188 237 136 316 250 271 240 226 216 224 239 232 239 232 223 235 252 259 249 248 248 245 241 237 239 237 237 241 241 247 251 254 260 262 270 266
80 336 226 178 78 143 137 105 76 66 203 246 223 195 254 219 229 230 69 97 93 32 298 272 265 258 272 276 268 256 249 241 233 235 234 238 240 240 241 238 232 235 241 256
113 158 53 323 103 72 182 153 82 31 353 218 355 212 248 301 340 53 125 129 35 311 331 323 272 271 285 293 287 272 254 249 236 239 242 237 236 234 240 243 245 247 246 247
162 206 169 196 186 175 201 176 147 191 189 198 355 238 253 247 307 355 241 211 294 332 345 325 308 306 298 299 288 272 260 242 239 243 241 238 238 237 239 235 243 240 228 239
178 155 106 164 222 140 184 221 77 103 345 72 205 255 305 278 277 156 137 101 59 19 1 336 327 329 318 309 290 271 255 243 237 240 231 222 221 223 225 228 222 216 214 223
352 100 44 95 37 298 276 153 101 319 135 233 255 239 232 215 238 122 128 114 40 345 7 16 18 9 351 323 295 268 242 221 217 213 216 216 214 213 214 210 208 212 216 226
194 77 109 107 211 180 169 189 215 173 175 182 171 243 257 71 49 103 112 76 73 68 58 49 33 13 360 347 315 267 237 222 218 219 209 198 197 196 201 206 210 219 226 232
175 32 159 193 83 353 247 208 190 155 210 217 120 262 157 95 76 91 67 15 86 83 76 59 36 15 344 331 313 287 261 247 248 240 217 203 195 194 200 211 225 242 255 263
153 209 112 111 137 182 216 223 228 252 348 228 142 251 8 96 80 77 63 48 94 359 311 330 358 335 344 321 304 294 275 262 254 240 224 213 209 211 217 239 260 269 273 275
181 159 202 188 125 127 186 203 226 225 178 240 231 254 287 326 291 257 217 261 268 267 272 298 314 312 311 312 292 287 285 274 262 249 236 227 223 224 228 237 258 276 284 285
124 191 278 288 348 350 323 294 215 219 231 228 247 263 249 270 293 317 314 315 280 297 289 304 306 299 298 305 296 291 289 285 269 262 248 240 238 238 246 254 257 261 275 287
154 144 163 286 278 289 272 291 287 267 249 244 253 265 260 275 280 279 283 302 296 281 286 292 289 290 293 296 307 306 289 304 281 261 256 250 249 251 257 262 268 271 277 281
131 151 116 257 198 266 310 233 230 256 260 250 262 266 284 268 273 269 312 311 298 294 293 290 287 287 289 295 297 299 290 283 290 270 258 254 256 257 260 266 269 273 274 272
137 168 130 211 67 235 237 230 211 224 244 241 252 263 269 275 281 290 298 290 289 285 280 283 281 283 285 292 291 292 286 278 285 273 265 262 258 257 262 265 272 275 274 271
132 161 185 161 186 275 317 273 215 230 265 263 252 258 268 277 291 297 287 281 297 301 284 284 287 292 297 292 296 280 274 280 278 272 267 264 256 264 269 271 275 275 272 269
202 186 160 136 184 212 227 237 237 219 251 248 249 258 268 281 271 256 279 289 296 292 279 275 282 289 285 285 291 274 273 276 277 283 281 273 264 263 266 269 267 268 269 267
182 197 213 225 231 255 221 234 135 165 223 232 244 260 285 279 278 290 290 287 295 299 293 286 280 280 282 283 276 281 284 283 282 274 272 272 265 266 267 266 265 269 269 264
167 169 198 212 231 244 222 242 215 234 239 256 269 302 316 309 303 290 295 304 300 294 287 288 295 292 284 281 281 282 282 281 279 274 271 270 269 269 269 268 271 271 268 264
227 193 183 175 206 227 238 242 295 331 313 306 305 302 295 293 294 293 296 298 293 278 277 293 292 281 279 276 283 287 287 289 289 287 281 278 276 275 272 268 267 268 266 259
245 230 245 281 258 261 276 282 285 287 288 291 290 288 288 286 288 287 286 291 288 280 290 287 284 280 279 277 270 277 280 285 288 289 282 281 280 275 271 267 263 259 254 251
193 188 220 249 256 264 264 267 273 278 278 278 282 284 285 284 287 284 282 283 291 289 287 280 278 279 280 280 280 276 281 284 286 290 289 286 283 279 274 268 261 258 258 258
199 232 212 237 251 232 253 264 266 269 273 271 282 286 275 286 291 292 286 288 300 295 286 280 281 281 282 286 286 284 282 281 283 283 286 286 286 283 278 274 269 266 267 269